FW6945 Weather Reports


time (UTC)temp
C
wind
direction
speed
KPH
gust
KPH
rain 1hr
cm
rain 24hr
cm
rain mn
cm
humidity
%
barometer
mb
20260906043047 20 126 0.0 3.2 0.00 0.00 0.00 97 1013.8
20260906041546 21 126 0.0 3.2 0.00 0.00 0.00 97 1014.1
20260906040130 21 126 0.0 4.8 0.00 0.00 0.00 97 1014.1
20260906034558 21 126 1.6 4.8 0.00 0.00 0.00 97 1014.3
20260906033103 21 0 0.0 1.6 0.00 0.00 0.00 97 1014.2
20260906031544 21 0 0.0 1.6 0.00 0.00 0.00 96 1014.2
20260906030047 21 0 0.0 6.4 0.00 0.00 0.00 97 1014.3
20260906024554 21 137 3.2 4.8 0.00 0.00 0.00 96 1013.8
20260906023044 21 137 0.0 1.6 0.00 0.00 0.00 96 1013.8
20260906021546 22 0 0.0 3.2 0.00 0.00 0.00 96 1013.9
20260906020046 22 137 1.6 3.2 0.00 0.00 0.00 96 1013.7
20260906014543 22 137 0.0 1.6 0.00 0.00 0.00 95 1013.6
20260906013049 22 0 0.0 1.6 0.00 0.00 0.00 95 1013.5
20260906011547 22 0 0.0 1.6 0.00 0.00 0.00 94 1013.1
20260906010047 22 0 0.0 3.2 0.00 0.00 0.00 94 1013.1
20260906004546 23 0 0.0 0.0 0.00 0.00 0.00 93 1012.9
20260906003050 23 0 0.0 3.2 0.00 0.00 0.00 91 1012.7
20260906001547 23 278 1.6 3.2 0.00 0.00 0.00 92 1012.4
20260906000045 24 0 0.0 1.6 0.00 0.00 0.00 90 1012.5
20260905234544 25 278 1.6 3.2 0.00 0.00 0.00 87 1012.2
20260905233057 26 0 0.0 1.6 0.00 0.00 0.00 85 1012.4
20260905231545 26 0 0.0 3.2 0.00 0.00 0.00 84 1012.2
20260905230047 27 0 0.0 1.6 0.00 0.00 0.00 80 1012.2
20260905224611 28 0 0.0 3.2 0.00 0.00 0.00 72 1012.1
20260905223047 28 0 0.0 4.8 0.00 0.00 0.00 70 1012.3
20260905221545 28 0 0.0 3.2 0.00 0.00 0.00 70 1012.2
20260905220051 29 279 1.6 4.8 0.00 0.00 0.00 68 1012.1
20260905214551 28 316 0.0 4.8 0.00 0.00 0.00 70 1012.4
20260905213045 28 257 3.2 9.7 0.00 0.00 0.00 70 1012.5
20260905211549 28 281 1.6 8.0 0.00 0.00 0.00 74 1012.7
20260905210100 27 273 4.8 11.3 0.00 0.00 0.00 71 1012.6
20260905204545 27 0 3.2 11.3 0.00 0.00 0.00 74 1012.7
20260905203048 27 175 3.2 12.9 0.00 0.00 0.00 76 1013.0
20260905201547 27 140 1.6 6.4 0.00 0.00 0.00 76 1013.1
20260905200048 26 0 0.0 6.4 0.00 0.00 0.00 78 1013.3
20260905194549 25 118 1.6 6.4 0.00 0.00 0.00 80 1013.4
20260905193043 26 0 0.0 3.2 0.00 0.00 0.00 77 1013.9
20260905191544 26 269 1.6 6.4 0.00 0.00 0.00 78 1013.8
20260905190051 25 120 3.2 6.4 0.00 0.00 0.00 78 1013.0
20260905184557 25 302 3.2 6.4 0.00 0.00 0.00 77 1013.4
20260905183045 26 0 1.6 6.4 0.00 0.00 0.00 68 1012.9
20260905181544 27 31 3.2 14.5 0.00 0.00 0.00 68 1013.3
20260905180059 26 0 0.0 6.4 0.00 0.00 0.00 77 1013.8
20260905174546 26 347 3.2 20.9 0.00 0.00 0.00 74 1014.6
20260905173103 29 332 14.5 43.5 0.00 0.00 0.00 62 1015.6
20260905171545 33 279 3.2 11.3 0.00 0.00 0.00 63 1014.5
20260905170048 33 82 1.6 8.0 0.00 0.00 0.00 59 1014.6
20260905164549 35 37 1.6 11.3 0.00 0.00 0.00 60 1014.8
20260905163044 33 285 3.2 9.7 0.00 0.00 0.00 62 1014.7
20260905161601 33 91 3.2 9.7 0.00 0.00 0.00 63 1015.0
20260905160042 33 0 1.6 8.0 0.00 0.00 0.00 65 1015.5
20260905154546 32 0 1.6 6.4 0.00 0.00 0.00 68 1015.5
20260905153045 32 322 0.0 12.9 0.00 0.00 0.00 69 1015.2
20260905151544 31 144 3.2 9.7 0.00 0.00 0.00 70 1015.3
20260905150050 30 143 1.6 8.0 0.00 0.00 0.00 72 1015.3
20260905144545 30 254 3.2 6.4 0.00 0.00 0.00 75 1015.1
20260905143046 29 278 1.6 9.7 0.00 0.00 0.00 79 1015.2
20260905141545 28 282 1.6 8.0 0.00 0.00 0.00 78 1015.2
20260905140046 27 143 3.2 12.9 0.00 0.00 0.00 82 1015.1
20260905134546 27 130 3.2 6.4 0.00 0.00 0.00 82 1015.2
20260905133043 27 0 0.0 4.8 0.00 0.00 0.00 85 1015.2
20260905131544 25 279 1.6 6.4 0.00 0.00 0.00 87 1015.3
20260905130050 26 0 0.0 3.2 0.00 0.00 0.00 90 1015.6
20260905124546 25 279 0.0 3.2 0.00 0.00 0.00 95 1015.6
20260905123053 23 0 0.0 1.6 0.00 0.00 0.00 99 1015.5
20260905121553 22 0 0.0 0.0 0.00 0.00 0.00 99 1015.4
20260905120050 21 290 3.2 4.8 0.00 0.00 0.00 98 1015.3
20260905114544 21 0 0.0 1.6 0.00 0.00 0.00 98 1015.3
20260905113043 20 0 0.0 1.6 0.00 0.00 0.00 98 1015.2
20260905111547 21 0 0.0 3.2 0.00 0.00 0.00 98 1014.7
20260905110045 20 0 0.0 0.0 0.00 0.00 0.00 98 1014.5
20260905104546 21 0 0.0 1.6 0.00 0.00 0.00 98 1014.4
20260905103043 21 0 0.0 1.6 0.00 0.00 0.00 98 1014.3
20260905101559 21 0 0.0 1.6 0.00 0.00 0.00 98 1014.2
20260905100114 21 0 0.0 1.6 0.00 0.00 0.00 98 1014.2
20260905094550 21 0 0.0 1.6 0.00 0.00 0.00 98 1014.1
20260905093043 21 283 0.0 3.2 0.00 0.00 0.00 98 1014.1
20260905091557 21 0 0.0 3.2 0.00 0.00 0.00 98 1014.1
20260905090045 21 0 0.0 1.6 0.00 0.00 0.00 98 1014.2
20260905084550 21 0 0.0 1.6 0.00 0.00 0.00 98 1014.3
20260905083103 21 0 0.0 0.0 0.00 0.00 0.00 98 1014.5
20260905081546 21 0 0.0 1.6 0.00 0.00 0.00 98 1014.5
20260905080047 21 0 0.0 1.6 0.00 0.00 0.00 98 1014.6
20260905074546 21 0 0.0 1.6 0.00 0.00 0.00 98 1014.8
20260905073050 22 283 0.0 3.2 0.00 0.00 0.00 97 1014.9
20260905071546 22 0 0.0 1.6 0.00 0.00 0.00 98 1015.0
20260905070048 22 283 0.0 3.2 0.00 0.00 0.00 98 1015.0
20260905064543 22 0 0.0 1.6 0.00 0.00 0.00 97 1015.2
20260905063054 22 0 0.0 1.6 0.00 0.00 0.00 97 1015.4
20260905061546 22 0 0.0 3.2 0.00 0.00 0.00 97 1015.5
20260905060048 22 283 0.0 3.2 0.00 0.00 0.00 97 1015.8
20260905054622 22 283 0.0 3.2 0.00 0.00 0.00 97 1016.0
20260905053044 22 283 0.0 1.6 0.00 0.00 0.00 97 1016.1
20260905051548 22 0 0.0 0.0 0.00 0.00 0.00 97 1016.2
20260905050050 23 0 0.0 0.0 0.00 0.00 0.00 97 1016.2
20260905044551 23 0 0.0 0.0 0.00 0.00 0.00 96 1016.3